Theta_e
307 311 311 310 316 319 321 321 321 323 323 322 322 323 322 320 318 319 319 319 318 318
299 300 301 301 301 301 301 304 305 306 320 322 322 322 323 322 320 320 319 319 319 318
295 296 296 295 296 295 296 298 299 299 300 300 299 302 313 318 312 318 307 307 304 300
293 292 293 292 293 293 294 294 294 294 294 295 295 296 295 294 294 292 292 293 294 293
292 291 290 290 291 291 291 291 291 291 291 291 291 291 291 290 291 291 290 290 291 291
289 289 289 289 289 290 290 290 290 290 289 289 289 289 289 288 288 287 287 287 287 288
287 287 287 288 288 288 289 288 288 289 288 288 288 288 287 287 286 286 286 286 286 286
285 286 286 286 286 286 286 286 287 287 287 288 288 287 286 286 285 284 283 284 284 285
284 284 284 284 284 284 284 284 284 284 284 285 286 287 286 284 283 282 282 280 281 281
283 282 282 282 283 282 282 283 283 283 283 282 283 285 284 283 281 280 280 280 280 279
282 281 281 281 281 281 282 281 281 281 282 282 283 285 284 283 281 281 280 280 280 280
281 281 280 280 279 280 280 280 280 281 281 281 282 285 284 281 279 279 279 279 279 279
281 280 279 279 279 280 280 280 281 281 280 281 281 286 285 282 280 279 279 280 281 282
280 279 279 279 279 279 279 279 278 278 278 280 280 283 285 284 281 280 280 279 279 280
Wind_Speed
7 5 4 6 2 2 3 4 3 12 14 15 15 14 12 11 13 14 12 15 12 10
7 9 5 7 6 4 5 5 6 7 10 15 16 15 14 13 15 14 13 13 12 9
8 8 7 7 9 8 6 7 5 5 7 7 8 8 8 11 5 12 4 3 6 4
9 9 10 11 9 7 8 6 7 8 8 8 8 8 8 8 8 11 9 7 6 7
10 10 11 10 9 8 9 8 9 10 9 11 10 10 9 10 9 11 11 9 8 8
12 11 11 10 10 10 10 11 12 11 12 12 10 11 11 11 12 13 11 11 9 8
12 12 10 10 12 11 10 11 12 11 13 12 11 11 11 13 14 12 13 11 11 10
11 11 11 11 12 11 12 12 11 12 13 12 11 9 10 12 13 12 12 12 11 10
12 11 12 10 12 12 13 13 12 13 12 12 9 19 19 13 11 10 10 9 8 6
11 12 12 10 12 13 12 10 12 12 11 12 11 17 17 15 9 9 8 7 6 6
10 11 10 11 13 12 9 11 10 10 9 9 10 16 16 15 9 9 8 7 6 6
8 11 10 11 10 8 9 10 10 8 9 9 9 14 14 11 7 8 8 7 7 6
8 9 9 7 7 5 6 7 7 9 7 9 7 14 12 8 4 7 5 5 6 11
9 8 7 5 5 5 5 6 6 7 6 8 7 9 14 13 5 4 4 4 4 3
Wind_Direction
360 38 98 78 66 186 205 202 246 222 214 212 213 213 214 213 216 212 215 217 218 219
51 48 46 80 77 71 39 6 7 353 254 214 207 209 216 217 214 210 217 218 218 218
66 74 71 54 64 56 43 35 23 41 35 45 35 18 265 223 220 208 177 178 159 145
68 62 59 58 52 49 55 40 48 50 49 45 48 48 52 50 70 71 60 33 82 80
79 72 71 66 61 57 61 53 57 59 58 56 48 50 60 71 50 78 71 64 55 56
70 70 68 67 63 60 64 58 62 63 64 63 55 64 67 75 73 67 66 55 50 39
53 58 60 64 65 59 55 63 62 61 66 59 63 62 68 71 70 65 66 61 55 47
52 55 62 65 69 67 64 58 60 63 63 61 55 60 59 67 74 70 68 62 59 56
52 51 50 53 66 67 64 63 62 60 63 63 64 71 75 73 77 77 78 75 63 54
54 53 49 43 55 58 59 62 63 63 64 71 75 83 87 86 84 86 79 79 77 70
52 61 58 58 54 54 55 57 60 52 48 62 67 73 76 75 74 73 65 68 66 69
42 61 57 58 54 45 57 59 59 47 53 58 57 62 68 66 57 68 62 51 50 55
32 53 63 60 64 56 60 67 67 68 45 46 51 61 69 73 85 79 74 54 54 64
31 42 41 39 41 58 73 76 66 70 49 51 40 54 62 66 58 63 60 58 47 31